Time,TemperatureF,DewpointF,PressureIn,WindDirection,WindDirectionDegrees,WindSpeedMPH,WindSpeedGustMPH,Humidity,HourlyPrecipIn,Conditions,Clouds,dailyrainin,SoftwareType,DateUTC
2013-09-23 00:00:00,63.0,53.0,-100.00,ESE,121,2.0,-999.0,70,0.00,,,0.00,,2013-09-23 05:00:00,
2013-09-23 00:43:00,63.0,53.0,-100.00,ESE,121,2.0,-999.0,70,0.00,,,0.00,,2013-09-23 05:43:00,
2013-09-23 00:53:00,63.0,53.0,-100.00,ESE,121,2.0,-999.0,70,0.00,,,0.00,,2013-09-23 05:53:00,
2013-09-23 01:00:00,61.0,52.0,-100.00,SE,130,2.0,-999.0,72,0.00,,,0.00,,2013-09-23 06:00:00,
2013-09-23 01:42:00,61.0,52.0,-100.00,SE,130,2.0,-999.0,72,0.00,,,0.00,,2013-09-23 06:42:00,
2013-09-23 01:52:00,61.0,52.0,-100.00,SE,130,2.0,-999.0,72,0.00,,,0.00,,2013-09-23 06:52:00,
2013-09-23 02:00:00,61.0,53.0,-100.00,SE,128,2.0,-999.0,75,0.00,,,0.00,,2013-09-23 07:00:00,
2013-09-23 02:42:00,61.0,53.0,-100.00,SE,128,2.0,-999.0,75,0.00,,,0.00,,2013-09-23 07:42:00,
2013-09-23 02:52:00,61.0,53.0,-100.00,SE,128,2.0,-999.0,75,0.00,,,0.00,,2013-09-23 07:52:00,
2013-09-23 03:00:00,59.0,52.0,-100.00,South,171,2.0,-999.0,78,0.00,,,0.00,,2013-09-23 08:00:00,
2013-09-23 03:42:00,59.0,52.0,-100.00,South,171,2.0,-999.0,78,0.00,,,0.00,,2013-09-23 08:42:00,
2013-09-23 03:52:00,59.0,52.0,-100.00,South,171,2.0,-999.0,78,0.00,,,0.00,,2013-09-23 08:52:00,
2013-09-23 04:00:00,58.0,52.0,-100.00,SSE,154,2.0,-999.0,81,0.00,,,0.00,,2013-09-23 09:00:00,
2013-09-23 04:43:00,58.0,52.0,-100.00,SSE,154,2.0,-999.0,81,0.00,,,0.00,,2013-09-23 09:43:00,
2013-09-23 04:53:00,58.0,52.0,-100.00,SSE,154,2.0,-999.0,81,0.00,,,0.00,,2013-09-23 09:53:00,
2013-09-23 05:00:00,57.0,52.0,-100.00,SE,134,2.0,-999.0,84,0.00,,,0.00,,2013-09-23 10:00:00,
2013-09-23 05:43:00,57.0,52.0,-100.00,SE,134,2.0,-999.0,84,0.00,,,0.00,,2013-09-23 10:43:00,
2013-09-23 05:53:00,57.0,52.0,-100.00,SE,134,2.0,-999.0,84,0.00,,,0.00,,2013-09-23 10:53:00,
2013-09-23 06:00:00,56.0,52.0,-100.00,SSE,159,3.0,-999.0,88,0.00,,,0.00,,2013-09-23 11:00:00,
2013-09-23 06:42:00,56.0,52.0,-100.00,SSE,159,3.0,-999.0,88,0.00,,,0.00,,2013-09-23 11:42:00,
2013-09-23 06:52:00,56.0,52.0,-100.00,SSE,159,3.0,-999.0,88,0.00,,,0.00,,2013-09-23 11:52:00,
2013-09-23 07:00:00,56.0,53.0,-100.00,South,169,1.0,-999.0,89,0.00,,,0.00,,2013-09-23 12:00:00,
2013-09-23 07:42:00,56.0,53.0,-100.00,South,169,1.0,-999.0,89,0.00,,,0.00,,2013-09-23 12:42:00,
2013-09-23 07:52:00,56.0,53.0,-100.00,South,169,1.0,-999.0,89,0.00,,,0.00,,2013-09-23 12:52:00,
2013-09-23 08:00:00,57.0,53.0,-100.00,SSE,153,2.0,-999.0,88,0.00,,,0.00,,2013-09-23 13:00:00,
2013-09-23 08:42:00,57.0,53.0,-100.00,SSE,153,2.0,-999.0,88,0.00,,,0.00,,2013-09-23 13:42:00,
2013-09-23 08:52:00,57.0,53.0,-100.00,SSE,153,2.0,-999.0,88,0.00,,,0.00,,2013-09-23 13:52:00,
2013-09-23 09:00:00,62.0,59.0,-100.00,SSE,161,3.0,-999.0,89,0.00,,,0.00,,2013-09-23 14:00:00,
2013-09-23 09:43:00,62.0,59.0,-100.00,SSE,161,3.0,-999.0,89,0.00,,,0.00,,2013-09-23 14:43:00,
2013-09-23 09:52:00,62.0,59.0,-100.00,SSE,161,3.0,-999.0,89,0.00,,,0.00,,2013-09-23 14:52:00,
2013-09-23 10:00:00,68.0,60.0,-100.00,SSE,164,3.0,-999.0,77,0.00,,,0.00,,2013-09-23 15:00:00,
2013-09-23 10:43:00,68.0,60.0,-100.00,SSE,164,3.0,-999.0,77,0.00,,,0.00,,2013-09-23 15:43:00,
2013-09-23 10:54:00,68.0,60.0,-100.00,SSE,164,3.0,-999.0,77,0.00,,,0.00,,2013-09-23 15:54:00,
2013-09-23 11:00:00,73.0,58.0,-100.00,SSE,152,5.0,-999.0,60,0.00,,,0.00,,2013-09-23 16:00:00,
2013-09-23 11:43:00,73.0,58.0,-100.00,SSE,152,5.0,-999.0,60,0.00,,,0.00,,2013-09-23 16:43:00,
2013-09-23 11:53:00,73.0,58.0,-100.00,SSE,152,5.0,-999.0,60,0.00,,,0.00,,2013-09-23 16:53:00,
2013-09-23 12:00:00,75.0,57.0,-100.00,SE,146,9.0,-999.0,53,0.00,,,0.00,,2013-09-23 17:00:00,
2013-09-23 12:42:00,75.0,57.0,-100.00,SE,146,9.0,-999.0,53,0.00,,,0.00,,2013-09-23 17:42:00,
2013-09-23 12:52:00,75.0,57.0,-100.00,SE,146,9.0,-999.0,53,0.00,,,0.00,,2013-09-23 17:52:00,
2013-09-23 13:00:00,76.0,58.0,-100.00,SSE,163,7.0,-999.0,53,0.00,,,0.00,,2013-09-23 18:00:00,
2013-09-23 13:42:00,76.0,58.0,-100.00,SSE,163,7.0,-999.0,53,0.00,,,0.00,,2013-09-23 18:42:00,
2013-09-23 13:52:00,76.0,58.0,-100.00,SSE,163,7.0,-999.0,53,0.00,,,0.00,,2013-09-23 18:52:00,
2013-09-23 14:00:00,78.0,57.0,-100.00,SSE,155,7.0,-999.0,48,0.00,,,0.00,,2013-09-23 19:00:00,
2013-09-23 14:42:00,78.0,57.0,-100.00,SSE,155,7.0,-999.0,48,0.00,,,0.00,,2013-09-23 19:42:00,
2013-09-23 14:53:00,78.0,57.0,-100.00,SSE,155,7.0,-999.0,48,0.00,,,0.00,,2013-09-23 19:53:00,
2013-09-23 15:00:00,78.0,55.0,-100.00,SSE,156,9.0,-999.0,45,0.00,,,0.00,,2013-09-23 20:00:00,
2013-09-23 15:42:00,78.0,55.0,-100.00,SSE,156,9.0,-999.0,45,0.00,,,0.00,,2013-09-23 20:42:00,
2013-09-23 15:52:00,78.0,55.0,-100.00,SSE,156,9.0,-999.0,45,0.00,,,0.00,,2013-09-23 20:52:00,
2013-09-23 16:00:00,80.0,57.0,-100.00,SSE,160,7.0,-999.0,46,0.00,,,0.00,,2013-09-23 21:00:00,
2013-09-23 16:44:00,80.0,57.0,-100.00,SSE,160,7.0,-999.0,46,0.00,,,0.00,,2013-09-23 21:44:00,
2013-09-23 16:54:00,80.0,57.0,-100.00,SSE,160,7.0,-999.0,46,0.00,,,0.00,,2013-09-23 21:54:00,
2013-09-23 17:00:00,80.0,58.0,-100.00,SSE,148,7.0,-999.0,46,0.00,,,0.00,,2013-09-23 22:00:00,
2013-09-23 17:43:00,80.0,58.0,-100.00,SSE,148,7.0,-999.0,46,0.00,,,0.00,,2013-09-23 22:43:00,
2013-09-23 17:54:00,80.0,58.0,-100.00,SSE,148,7.0,-999.0,46,0.00,,,0.00,,2013-09-23 22:54:00,
2013-09-23 18:00:00,79.0,57.0,-100.00,SE,142,6.0,-999.0,47,0.00,,,0.00,,2013-09-23 23:00:00,
2013-09-23 18:42:00,79.0,57.0,-100.00,SE,142,6.0,-999.0,47,0.00,,,0.00,,2013-09-23 23:42:00,
2013-09-23 18:54:00,79.0,57.0,-100.00,SE,142,6.0,-999.0,47,0.00,,,0.00,,2013-09-23 23:54:00,
2013-09-23 20:00:00,73.0,58.0,-100.00,ESE,106,4.0,-999.0,59,0.00,,,0.00,,2013-09-24 01:00:00,
2013-09-23 20:43:00,73.0,58.0,-100.00,ESE,106,4.0,-999.0,59,0.00,,,0.00,,2013-09-24 01:43:00,
2013-09-23 20:52:00,73.0,58.0,-100.00,ESE,106,4.0,-999.0,59,0.00,,,0.00,,2013-09-24 01:52:00,
2013-09-23 21:00:00,70.0,57.0,-100.00,SE,140,2.0,-999.0,64,0.00,,,0.00,,2013-09-24 02:00:00,
2013-09-23 21:42:00,70.0,57.0,-100.00,SE,140,2.0,-999.0,64,0.00,,,0.00,,2013-09-24 02:42:00,
2013-09-23 21:52:00,70.0,57.0,-100.00,SE,140,2.0,-999.0,64,0.00,,,0.00,,2013-09-24 02:52:00,
2013-09-23 22:00:00,69.0,57.0,-100.00,South,188,2.0,-999.0,67,0.00,,,0.00,,2013-09-24 03:00:00,
2013-09-23 22:45:00,69.0,57.0,-100.00,South,188,2.0,-999.0,67,0.00,,,0.00,,2013-09-24 03:45:00,
2013-09-23 22:55:00,69.0,57.0,-100.00,South,188,2.0,-999.0,67,0.00,,,0.00,,2013-09-24 03:55:00,